[Iaude] MPEC S112: 2016 TV17 [a=1.46,e=0.20,i=18.1,H=22.56]

mpec at marsden.cfa.harvard.edu mpec at marsden.cfa.harvard.edu
Wed Sep 20 10:10:12 EDT 2023


M.P.E.C. 2023-S112                           Issued 2023 September 20, 14:08 UT

     The Minor Planet Electronic Circulars contain information on unusual
         minor planets, routine data on comets and natural satellites,
         and occasional editorial announcements.  They are published
    on behalf of Division F of the International Astronomical Union by the
          Minor Planet Center, Smithsonian Astrophysical Observatory,
                          Cambridge, MA 02138, U.S.A.
			  
             Prepared using the Tamkin Foundation Computer Network

                              MPC at CFA.HARVARD.EDU
            URL https://www.minorplanetcenter.net/    ISSN 1523-6714

                                   2016 TV17                                    


                           Revision to MPEC 2016-T90                            

Additional Observations:
     K16T17V KC2019 04 06.48799513 16 53.976-20 43 08.70         23.37GVES112F51
     K16T17V KC2019 04 08.43613213 14 17.165-19 47 25.15         22.34GVES112F51
     K16T17V KC2023 09 19.19637321 19 04.868+30 45 02.74         22.31GVES112V06
     K16T17V KC2023 09 19.20192721 19 04.699+30 44 52.55         21.79GVES112V06
     K16T17V KC2023 09 19.20748121 19 04.534+30 44 42.32         22.12GVES112V06

Observer details:
F51 Pan-STARRS 1, Haleakala.  Observers J. Bulger, K. Chambers, T. Lowe, P.
    Minguez, A. Schultz, I. Smith.  Measurers S. Chastel, J. Fairlamb, M.
    Huber, Y. Ramanjooloo, R. Wainscoat, R. Weryk.  1.8-m Ritchey-Chretien +
    CCD.
V06 Catalina Sky Survey-Kuiper.  Observer K. W. Wierzchos.  Measurers E. J.
    Christensen, D. Fay, J. B. Fazekas, D. C. Fuls, A. R. Gibbs, A. D. Grauer,
    H. Groeller, J. K. Hogan, R. A. Kowalski, S. M. Larson, G. J. Leonard, D.
    Rankin, R. L. Seaman, A. Serrano, F. C. Shelly, K. W. Wierzchos.  1.55-m
    reflector + 1K CCD.

First and last observations above in comparison with prediction:
Residuals in seconds of arc, reference and Delta-T
190406 F51  1.6+  0.1+    230919 V06 10.1+  6.0+    MPO750185   +0.03 days

Orbital elements:
2016 TV17                                                Earth MOID = 0.1934 AU
Epoch 2023 Sept. 13.0 TT = JDT 2460200.5                Veres                   
M 304.15623              (2000.0)            P               Q                  
n   0.55880613     Peri.  208.75439     +0.47053606     -0.86503226             
a   1.4598064      Node   214.04040     +0.85736234     +0.49485993             
e   0.2002477      Incl.   18.12180     +0.20862800     -0.08266098             
P   1.76           H   22.56          G   0.15           U   0                  
Residuals in seconds of arc
161005 G96  0.2+  0.4-    161026 F51  0.1+  0.0     161029 F51  0.2-  0.1-
161005 G96  0.5-  0.1-    161026 F51  0.1+  0.1-    161029 H21  0.3+  0.6-
161005 G96  0.1-  0.1+    161026 F51  0.0   0.0     161029 F51  0.2-  0.2+
161005 G96  0.4-  0.1-    161026 F51  0.0   0.1-    161029 F51  0.2-  0.0
161005 G96  0.4-  0.2+    161026 F51  0.0   0.0     161029 F51  0.0   0.0
161005 G96  0.4-  0.2-    161026 F51  0.1+  0.3+    161029 F51  0.2-  0.1+
161005 G96  0.0   0.1-    161026 F51  0.1+  0.2+    161029 F51  0.1-  0.1-
161005 G96  1.5-  0.4+    161026 F51  0.1+  0.0     161029 F51  0.1-  0.1-
161006 926  0.0   0.1-    161027 F51  0.1-  0.1+    161029 F51  0.1-  0.1+
161006 926  0.1-  0.1+    161027 F51  0.2-  0.1+    161029 F51  0.1-  0.0
161006 G96  0.7+  0.2+    161027 F51  0.2-  0.0     161029 F51  0.0   0.1-
161006 G96  0.1+  0.4+    161027 F51  0.1-  0.1+    161029 F51  0.1-  0.1+
161006 G96  0.2+  0.0     161027 F51  0.2-  0.1-    161029 F51  0.1-  0.0
161006 G96  0.5+  0.4-    161027 F51  0.1-  0.0     161029 F51  0.1-  0.0
161007 I52 (1.7-  0.4+)   161027 F51  0.1-  0.1+    161029 F51  0.1-  0.1+
161007 I52  0.1-  0.1+    161027 F51  0.2-  0.1+    161030 703  0.5-  0.8+
161007 G96  0.3-  0.1+    161027 F51  0.2-  0.1+    161030 703  1.1-  0.7+
161007 I52 (1.4+  0.4+)   161027 G96  0.2-  0.2-    161030 703  0.3-  1.7+
161007 G96  0.4-  0.1-    161027 F51  0.2-  0.1+    161102 G96  0.0   0.2+
161007 G96 (0.9+  0.9+)   161027 G96  0.0   0.0     161102 G96  0.0   0.1+
161009 926  0.1-  0.2-    161027 G96  0.1-  0.0     161102 G96  0.0   0.2+
161009 926  0.0   0.0     161027 F51  0.1-  0.1+    161102 G96  0.2+  0.2-
161009 926  0.3+  0.1-    161027 G96  0.2+  0.2+    161107 F51  0.1-  0.0
161009 I52  0.9+  0.2-    161027 F51  0.1-  0.1+    161107 F51  0.1-  0.0
161009 I52  0.9-  0.6-    161027 F51  0.2-  0.1-    161107 F51  0.2-  0.1+
161009 I52 (2.8-  0.4-)   161027 F51  0.1-  0.1-    161107 F51  0.1-  0.1-
161010 F51  0.0   0.1-    161027 F51  0.2-  0.1+    161118 807  0.0   0.0
161010 F51  0.1+  0.1-    161027 F51  0.2-  0.4+    161118 807  0.1-  0.2+
161019 H21  0.1-  0.0     161027 F51  0.2-  0.1+    161118 807  0.0   0.0
161019 H21  0.0   0.0     161027 F51  0.2-  0.2+    161127 807  0.0   0.2+
161019 H21  0.1-  0.0     161027 F51  0.2-  0.1+    161127 807  0.0   0.0
161019 G96  0.2-  0.3+    161027 F51  0.2-  0.2+    161127 807  0.2+  0.2-
161019 G96  0.0   0.0     161027 F51  0.2-  0.2+    161220 807  0.0   0.1-
161019 G96  0.6-  0.1-    161027 F51  0.1-  0.2+    161220 807  0.2-  0.1+
161019 926  0.0   0.1-    161027 F51  0.1-  0.1+    161220 807  0.1-  0.1-
161019 926  0.0   0.1+    161027 F51  0.2-  0.2+    170101 807  0.4+  0.4-
161019 926  0.4+  0.4-    161027 F51  0.0   0.1+    170101 807  0.1+  0.2-
161020 691 (0.2+  0.9-)   161027 F51  0.2-  0.0     170101 807  0.3+  0.0
161020 691  0.0   0.7+    161027 F51  0.0   0.2+    170103 F51  0.1+  0.0
161020 691 (0.2-  1.0-)   161027 F51  0.1-  0.0     170103 F51  0.0   0.1-
161024 H21  0.0   0.2-    161027 F51  0.2-  0.2+    170103 F51  0.0   0.1+
161024 H21  0.9+  0.6-    161028 F51  0.3-  0.2+    170118 F51  0.1-  0.0
161024 H21  0.0   0.2+    161028 F51  0.2-  0.0     170118 F51  0.2-  0.3-
161024 H21  0.7+  0.6-    161028 F51  0.2-  0.0     170118 F51  0.3-  0.1+
161024 H21  0.5-  0.1+    161028 F51  0.2-  0.1+    170118 F51  0.0   0.1+
161025 F51  0.0   0.1-    161028 F51  0.1-  0.1+    190406 F51  0.1+  0.0
161025 F51  0.0   0.0     161028 F51  0.1-  0.0     190408 F51  0.4-  0.5+
161025 F51  0.0   0.2-    161028 F51  0.1-  0.1+    230919 V06  0.0   0.1+
161026 F51  0.2-  0.1-    161028 F51  0.1-  0.2+    230919 V06  0.0   0.0
161026 F51  0.2-  0.0     161028 F51  0.1-  0.2+    230919 V06  0.0   0.1-
161026 F51  0.1-  0.0     161029 F51  0.1-  0.0
161026 F51  0.1-  0.1-    161029 H21  0.2+  0.2+

Ephemeris:
2016 TV17                a,e,i = 1.46, 0.20, 18                  q = 1.1675
Date    TT    R. A. (2000) Decl.     Delta      r    Elong.  Phase     V
2023 08 21    21 46 09.2 +37 57 23   0.5288  1.4090   129.6    33.6    23.3
...
2023 09 05    21 29 28.5 +36 10 37   0.4642  1.3655   132.5    33.0    23.0
...
2023 09 13    21 22 26.3 +33 33 53   0.4367  1.3426   132.9    33.3    22.8
...
2023 09 19    21 19 09.1 +30 51 01   0.4198  1.3257   132.7    33.9    22.7
2023 09 20    21 18 48.7 +30 20 22   0.4172  1.3229   132.5    34.0    22.7
2023 09 21    21 18 32.1 +29 48 46   0.4148  1.3201   132.4    34.2    22.7
...
2023 09 27    21 18 16.5 +26 20 57   0.4023  1.3037   131.3    35.3    22.6
...
2023 10 05    21 21 49.1 +21 04 06   0.3912  1.2826   128.9    37.4    22.6
...
2023 10 20    21 40 25.5 +10 11 08   0.3882  1.2460   122.0    42.7    22.6

A. U. Tomatic                (C) Copyright 2023 MPC           M.P.E.C. 2023-S112





More information about the Iaude mailing list